Change the Weather History Date:

Monday, January 21, 2013

  Actual Average Record
Temperature  
Mean Temperature 36 °F -  
Max Temperature 50 °F 52 °F 76 °F (1950)
Min Temperature 21 °F 23 °F -3 °F (1930)
Degree Days  
Heating Degree Days 30    
Moisture  
Dew Point 21 °F    
Average Humidity 66    
Maximum Humidity 85    
Minimum Humidity 38    
Precipitation  
Precipitation 0.00 in - - ()
Sea Level Pressure  
Sea Level Pressure 30.25 in    
Wind  
Wind Speed 3 mph (East)    
Max Wind Speed 7 mph    
Max Gust Speed -    
Visibility 10 miles    
Events      
Averages and records for this station are not official NWS values.
T = Trace of Precipitation, MM = Missing Value Source: NWS Daily Summary

Daily Weather History Graph

Daily Weather History Graph

Search for Another Location

Airport or City:

Trip Planner

Search our weather history database for the weather conditions in past years. The results will help you decide how hot, cold, wet, or windy it might be!

Date:

Astronomy

Jan. 21, 2013 Rise Set
Actual Time 7:00 AM MST 5:11 PM MST
Civil Twilight 6:32 AM MST 5:39 PM MST
Nautical Twilight 6:01 AM MST 6:10 PM MST
Astronomical Twilight 5:31 AM MST 6:40 PM MST
Moon 12:54 PM MST (1/21) 2:30 AM MST (1/21)
Length of Visible Light 11h 06m
Length of Day
10h 11m
Waxing Gibbous, 75% of the Moon is Illuminated
Jan 21
Waxing Gibbous
Jan 26
Full
Feb 3
Last Quarter
Feb 10
New
Feb 17
First Quarter

Hourly Weather History & Observations

Time (MST) Temp. Windchill Dew Point Humidity Pressure Visibility Wind Dir Wind Speed Gust Speed Precip Events Conditions
12:53 AM 30.0 °F 23.2 °F 19.0 °F 64% 30.26 in 10.0 mi NE 6.9 mph - N/A   Clear
1:53 AM 28.0 °F - 19.0 °F 69% 30.26 in 10.0 mi Calm Calm - N/A   Clear
2:53 AM 26.1 °F 18.4 °F 19.0 °F 75% 30.26 in 10.0 mi NNE 6.9 mph - N/A   Clear
3:53 AM 24.1 °F - 18.0 °F 77% 30.26 in 10.0 mi Calm Calm - N/A   Clear
4:53 AM 23.0 °F 18.4 °F 18.0 °F 81% 30.28 in 10.0 mi NE 3.5 mph - N/A   Clear
5:53 AM 21.9 °F 15.7 °F 18.0 °F 85% 30.31 in 10.0 mi ENE 4.6 mph - N/A   Clear
6:16 AM 23.0 °F 15.8 °F 17.6 °F 80% 30.29 in 10.0 mi ENE 5.8 mph - N/A   Mostly Cloudy
6:53 AM 25.0 °F - 19.9 °F 81% 30.33 in 10.0 mi Calm Calm - N/A   Overcast
7:07 AM 26.6 °F - 21.2 °F 80% 30.30 in 10.0 mi Calm Calm - N/A   Overcast
7:53 AM 26.1 °F 21.9 °F 21.9 °F 84% 30.34 in 9.0 mi ESE 3.5 mph - N/A   Overcast
8:53 AM 26.1 °F 20.5 °F 21.9 °F 84% 30.36 in 8.0 mi SSE 4.6 mph - N/A   Overcast
9:53 AM 27.0 °F - 23.0 °F 85% 30.36 in 8.0 mi Calm Calm - N/A   Overcast
10:53 AM 28.9 °F - 24.1 °F 82% 30.35 in 10.0 mi Calm Calm - N/A   Overcast
11:14 AM 32.0 °F 27.5 °F 24.8 °F 75% 30.29 in 10.0 mi ESE 4.6 mph - N/A   Scattered Clouds
11:53 AM 34.0 °F - 25.0 °F 70% 30.29 in 10.0 mi Calm Calm - N/A   Clear
12:53 PM 39.0 °F 34.8 °F 25.0 °F 57% 30.23 in 10.0 mi SSE 5.8 mph - N/A   Clear
1:53 PM 45.0 °F 43.5 °F 25.0 °F 46% 30.19 in 10.0 mi South 3.5 mph - N/A   Clear
2:53 PM 48.0 °F - 25.0 °F 41% 30.16 in 10.0 mi Calm Calm - N/A   Clear
3:53 PM 50.0 °F - 25.0 °F 38% 30.14 in 10.0 mi Calm Calm - N/A   Clear
4:53 PM 48.9 °F - 24.1 °F 38% 30.13 in 10.0 mi East 4.6 mph - N/A   Clear
5:53 PM 39.9 °F 35.8 °F 23.0 °F 51% 30.17 in 10.0 mi East 5.8 mph - N/A   Clear
6:53 PM 39.9 °F - 21.0 °F 47% 30.16 in 10.0 mi Calm Calm - N/A   Clear
7:53 PM 34.0 °F - 19.9 °F 56% 30.19 in 10.0 mi Calm Calm - N/A   Clear
8:53 PM 34.0 °F 31.0 °F 19.0 °F 54% 30.19 in 10.0 mi WSW 3.5 mph - N/A   Clear
9:53 PM 35.1 °F - 19.0 °F 52% 30.19 in 10.0 mi Calm Calm - N/A   Clear
10:53 PM 30.0 °F - 19.0 °F 64% 30.20 in 10.0 mi Calm Calm - N/A   Clear
11:53 PM 30.0 °F 24.1 °F 19.0 °F 64% 30.17 in 10.0 mi WSW 5.8 mph - N/A   Clear